N2ADK Weather Reports


Display with metric or nautical units.
time (UTC)temp
F
wind
direction
speed
MPH
gust
MPH
rain 1hr
in
rain 24hr
in
rain mn
in
humidity
%
barometer
mb
20260509034542 38 0 0.0 0.0 0.00 0.15 0.15 91 1012.1
20260509034017 38 0 0.0 0.0 0.00 0.15 0.15 90 1012.0
20260509033516 38 0 0.0 0.0 0.00 0.15 0.15 90 1012.0
20260509033028 38 0 0.0 0.0 0.00 0.15 0.15 90 1011.9
20260509032520 38 0 0.0 0.0 0.00 0.15 0.15 89 1011.9
20260509032017 38 0 0.0 0.0 0.00 0.15 0.15 90 1012.0
20260509031533 39 0 0.0 0.0 0.00 0.15 0.15 89 1012.1
20260509031016 39 0 0.0 0.0 0.00 0.15 0.15 90 1012.2
20260509030517 39 0 0.0 0.0 0.00 0.15 0.15 90 1012.2
20260509030030 39 0 0.0 0.0 0.00 0.15 0.15 91 1012.3
20260509025514 38 0 0.0 0.0 0.00 0.15 0.15 91 1012.3
20260509025014 38 0 0.0 0.0 0.00 0.15 0.15 91 1012.3
20260509024529 38 0 0.0 0.0 0.00 0.15 0.15 91 1012.4
20260509024014 38 0 0.0 0.0 0.00 0.15 0.15 92 1012.3
20260509023515 38 0 0.0 0.0 0.00 0.15 0.15 92 1012.4
20260509023029 37 0 0.0 0.0 0.00 0.15 0.15 92 1012.4
20260509022516 37 0 0.0 0.0 0.00 0.15 0.15 92 1012.5
20260509022014 37 0 0.0 0.0 0.00 0.15 0.15 91 1012.4
20260509021536 37 0 0.0 0.0 0.00 0.15 0.15 91 1012.3
20260509021014 37 0 0.0 0.0 0.00 0.15 0.15 91 1012.3
20260509020516 37 0 0.0 0.0 0.00 0.15 0.15 91 1012.2
20260509020033 37 0 0.0 0.0 0.00 0.15 0.15 91 1012.3
20260509015517 38 0 0.0 0.0 0.00 0.15 0.15 91 1012.4
20260509015017 38 0 0.0 0.0 0.00 0.15 0.15 90 1012.3
20260509014532 38 0 0.0 0.0 0.00 0.15 0.15 90 1012.3
20260509014016 38 0 0.0 0.0 0.00 0.15 0.15 90 1012.1
20260509013516 38 0 0.0 0.0 0.00 0.15 0.15 90 1012.0
20260509013030 38 0 0.0 0.0 0.00 0.15 0.15 89 1012.0
20260509012514 39 0 0.0 0.0 0.00 0.15 0.15 88 1011.9
20260509012016 39 0 0.0 0.0 0.00 0.15 0.15 88 1011.8
20260509011539 39 0 0.0 0.0 0.00 0.15 0.15 88 1011.8
20260509011014 39 0 0.0 0.0 0.00 0.15 0.15 87 1011.6
20260509010516 40 0 0.0 0.0 0.00 0.15 0.15 87 1011.6
20260509010039 40 0 0.0 0.0 0.00 0.15 0.15 86 1011.5
20260509005513 40 0 0.0 0.0 0.00 0.15 0.15 86 1011.5
20260509005014 41 0 0.0 0.0 0.00 0.15 0.15 86 1011.5
20260509004540 41 0 0.0 0.0 0.00 0.15 0.15 85 1011.3
20260509004015 42 0 0.0 0.0 0.00 0.15 0.15 85 1011.4
20260509003515 42 0 0.0 0.0 0.00 0.15 0.15 83 1011.2
20260509003032 43 0 0.0 0.0 0.00 0.15 0.15 82 1011.1
20260509002514 43 0 0.0 0.0 0.00 0.15 0.15 82 1011.0
20260509002015 44 0 0.0 0.0 0.00 0.15 0.15 81 1010.9
20260509001530 44 0 0.0 0.0 0.00 0.15 0.15 79 1010.9
20260509001014 45 0 0.0 0.0 0.00 0.15 0.15 78 1011.0
20260509000518 46 0 0.0 0.0 0.00 0.15 0.15 75 1011.0
20260509000034 46 0 0.0 0.0 0.00 0.15 0.15 73 1010.9
20260508235519 47 0 0.0 0.0 0.00 0.15 0.15 72 1010.9
20260508235018 48 0 0.0 0.0 0.00 0.15 0.15 70 1010.9
20260508234533 49 0 0.0 0.0 0.00 0.15 0.15 71 1010.9
20260508234019 50 0 0.0 0.0 0.00 0.15 0.15 68 1010.8
20260508233518 51 0 0.0 0.0 0.00 0.15 0.15 63 1010.6
20260508233031 52 0 0.0 0.0 0.00 0.15 0.15 63 1010.6
20260508232518 52 0 0.0 0.0 0.00 0.15 0.15 57 1010.7
20260508232017 53 0 0.0 0.0 0.00 0.15 0.15 53 1010.5
20260508231537 53 0 0.0 0.0 0.00 0.15 0.15 51 1010.6
20260508231019 53 0 0.0 0.0 0.00 0.15 0.15 53 1010.5
20260508230518 53 0 0.0 0.0 0.00 0.15 0.15 49 1010.5
20260508230037 53 0 0.0 0.0 0.00 0.15 0.15 51 1010.6
20260508225522 53 0 0.0 0.0 0.00 0.15 0.15 50 1010.6
20260508225019 54 0 0.0 0.0 0.00 0.15 0.15 51 1010.5
20260508224537 54 0 0.0 0.0 0.00 0.15 0.15 49 1010.5
20260508224018 54 0 0.0 0.0 0.00 0.15 0.15 51 1010.8
20260508223518 54 0 0.0 0.0 0.00 0.15 0.15 49 1010.8
20260508223041 54 0 0.0 0.0 0.00 0.15 0.15 50 1010.7
20260508222518 55 0 0.0 0.0 0.00 0.15 0.15 48 1010.9
20260508222018 55 0 0.0 0.0 0.00 0.15 0.15 49 1010.9
20260508221532 55 0 0.0 0.0 0.00 0.15 0.15 48 1010.9
20260508221020 55 0 0.0 0.0 0.00 0.15 0.15 52 1011.0
20260508220518 55 0 0.0 0.0 0.00 0.15 0.15 50 1011.0
20260508220036 55 0 0.0 0.0 0.00 0.15 0.15 48 1010.9
20260508215518 55 0 0.0 0.0 0.00 0.15 0.15 47 1010.9
20260508215018 55 0 0.0 0.0 0.00 0.15 0.15 53 1010.9
20260508214541 55 0 0.0 0.0 0.00 0.15 0.15 52 1010.9
20260508214018 56 0 0.0 0.0 0.00 0.15 0.15 52 1010.9
20260508213518 56 0 0.0 0.0 0.00 0.15 0.15 54 1010.8
20260508213036 55 0 0.0 0.0 0.00 0.15 0.15 56 1010.9
20260508212518 54 0 0.0 0.0 0.00 0.15 0.15 54 1010.8
20260508212023 55 0 0.0 0.0 0.00 0.15 0.15 54 1011.0
20260508211535 55 0 0.0 0.0 0.00 0.15 0.15 54 1010.9
20260508211018 54 0 0.0 0.0 0.00 0.15 0.15 54 1010.9
20260508210518 54 0 0.0 0.0 0.00 0.15 0.15 56 1011.1
20260508210040 54 0 0.0 0.0 0.00 0.15 0.15 50 1011.0
20260508205517 54 0 0.0 0.0 0.00 0.15 0.15 55 1011.1
20260508205018 54 0 0.0 0.0 0.00 0.15 0.15 55 1011.1
20260508204538 54 0 0.0 0.0 0.00 0.15 0.15 53 1011.0
20260508204026 53 0 0.0 0.0 0.00 0.15 0.15 53 1011.0
20260508203518 53 0 0.0 0.0 0.00 0.15 0.15 57 1011.0
20260508203035 53 0 0.0 0.0 0.00 0.15 0.15 55 1011.2
20260508202522 53 0 0.0 0.0 0.00 0.15 0.15 58 1011.2
20260508202018 53 0 0.0 0.0 0.00 0.15 0.15 58 1011.2
20260508201538 53 0 0.0 0.0 0.00 0.15 0.15 56 1011.2
20260508201021 54 0 0.0 0.0 0.00 0.15 0.15 61 1011.3
20260508200519 53 0 0.0 0.0 0.00 0.15 0.15 62 1011.4
20260508200035 53 0 0.0 0.0 0.00 0.15 0.15 59 1011.4
20260508195518 53 0 0.0 0.0 0.00 0.15 0.15 61 1011.5
20260508195018 52 0 0.0 0.0 0.00 0.15 0.15 61 1011.5
20260508194532 52 0 0.0 0.0 0.00 0.15 0.15 63 1011.6
20260508194017 52 0 0.0 0.0 0.00 0.15 0.15 62 1011.7
20260508193517 51 0 0.0 0.0 0.00 0.15 0.15 64 1011.7
20260508193036 51 0 0.0 0.0 0.00 0.15 0.15 65 1011.6
20260508192519 51 0 0.0 0.0 0.00 0.15 0.15 68 1011.6
20260508192019 51 0 0.0 0.0 0.00 0.15 0.15 65 1011.6
20260508191533 51 0 0.0 0.0 0.00 0.15 0.15 66 1011.6
20260508191019 51 0 0.0 0.0 0.00 0.15 0.15 67 1011.7
20260508190518 51 0 0.0 0.0 0.00 0.15 0.15 69 1011.8
20260508190036 50 0 0.0 0.0 0.00 0.15 0.15 70 1011.8
20260508185519 50 0 0.0 0.0 0.00 0.15 0.15 70 1011.8
20260508185018 50 0 0.0 0.0 0.00 0.15 0.15 70 1011.9
20260508184535 51 0 0.0 0.0 0.00 0.15 0.15 68 1011.9
20260508184017 52 0 0.0 0.0 0.00 0.15 0.15 69 1012.0
20260508183520 52 0 0.0 0.0 0.00 0.15 0.15 72 1011.8
20260508183030 53 0 0.0 0.0 0.00 0.15 0.15 71 1011.8
20260508182518 52 0 0.0 0.0 0.00 0.15 0.15 71 1011.8
20260508182017 51 0 0.0 0.0 0.00 0.15 0.15 74 1011.9
20260508181530 49 0 0.0 0.0 0.00 0.15 0.15 71 1011.9
20260508181018 49 0 0.0 0.0 0.00 0.15 0.15 72 1012.0
20260508180520 49 0 0.0 0.0 0.00 0.15 0.15 73 1012.0
20260508180030 49 0 0.0 0.0 0.00 0.15 0.15 72 1011.8
20260508175518 49 0 0.0 0.0 0.00 0.15 0.15 74 1012.1
20260508175019 49 0 0.0 0.0 0.00 0.15 0.15 72 1011.9
20260508174539 50 0 0.0 0.0 0.00 0.15 0.15 71 1012.0
20260508174018 50 0 0.0 0.0 0.00 0.15 0.15 74 1012.0
20260508173519 49 0 0.0 0.0 0.00 0.15 0.15 74 1012.0
20260508173034 49 0 0.0 0.0 0.00 0.15 0.15 74 1012.0
20260508172518 48 0 0.0 0.0 0.00 0.15 0.15 76 1012.1
20260508172022 48 0 0.0 0.0 0.00 0.15 0.15 73 1012.1
20260508171541 48 0 0.0 0.0 0.00 0.15 0.15 77 1012.1
20260508171017 48 0 0.0 0.0 0.00 0.15 0.15 72 1012.2
20260508170518 49 0 0.0 0.0 0.00 0.15 0.15 75 1012.0
20260508170041 50 0 0.0 0.0 0.00 0.15 0.15 75 1012.1
20260508165517 50 0 0.0 0.0 0.00 0.15 0.15 77 1012.1
20260508165018 49 0 0.0 0.0 0.00 0.15 0.15 82 1012.1
20260508164536 48 0 0.0 0.0 0.00 0.15 0.15 82 1012.2
20260508164018 47 0 0.0 0.0 0.00 0.15 0.15 83 1012.3
20260508163519 47 0 0.0 0.0 0.00 0.15 0.15 84 1012.5
20260508163046 46 0 0.0 0.0 0.00 0.15 0.15 84 1012.4
20260508162518 46 0 0.0 0.0 0.00 0.15 0.15 87 1012.4
20260508162018 46 0 0.0 0.0 0.00 0.15 0.15 88 1012.5
20260508161536 45 0 0.0 0.0 0.00 0.15 0.15 86 1012.6
20260508161018 46 0 0.0 0.0 0.00 0.15 0.15 86 1012.7
20260508160517 46 0 0.0 0.0 0.00 0.15 0.15 89 1012.7
20260508160054 45 0 0.0 0.0 0.00 0.15 0.15 89 1012.8
20260508155522 45 0 0.0 0.0 0.00 0.15 0.15 90 1012.7
20260508155019 44 0 0.0 0.0 0.00 0.15 0.15 91 1012.6
20260508154539 44 0 0.0 0.0 0.01 0.15 0.15 90 1012.7
20260508154018 43 0 0.0 0.0 0.01 0.15 0.15 90 1012.8
20260508153519 43 0 0.0 0.0 0.01 0.15 0.15 91 1012.7
20260508153044 43 0 0.0 0.0 0.02 0.15 0.15 91 1012.9
20260508152522 43 0 0.0 0.0 0.04 0.15 0.15 92 1012.8
20260508152021 42 0 0.0 0.0 0.06 0.15 0.15 92 1012.8
20260508151541 42 0 0.0 0.0 0.07 0.15 0.15 91 1012.7
20260508151020 42 0 0.0 0.0 0.07 0.15 0.15 91 1012.7
20260508150521 42 0 0.0 0.0 0.07 0.15 0.15 91 1012.8
20260508150037 42 0 0.0 0.0 0.07 0.15 0.15 91 1012.6
20260508145518 41 0 0.0 0.0 0.07 0.15 0.15 91 1012.7
20260508145022 41 0 0.0 0.0 0.07 0.15 0.15 91 1012.7
20260508144534 41 0 0.0 0.0 0.06 0.14 0.14 90 1012.7
20260508144018 41 0 0.0 0.0 0.06 0.14 0.14 89 1012.7
20260508143518 41 0 0.0 0.0 0.05 0.13 0.13 88 1012.8
20260508143042 42 0 0.0 0.0 0.04 0.12 0.12 86 1012.8
20260508142521 42 0 0.0 0.0 0.03 0.11 0.11 83 1012.8
20260508142018 44 0 0.0 0.0 0.00 0.08 0.08 82 1012.6
20260508141537 44 0 0.0 0.0 0.00 0.08 0.08 80 1012.4
20260508141018 44 0 0.0 0.0 0.00 0.08 0.08 80 1012.2
20260508140518 45 0 0.0 0.0 0.00 0.08 0.08 80 1012.1
20260508140030 45 0 0.0 0.0 0.00 0.08 0.08 79 1012.0
20260508135518 46 0 0.0 0.0 0.00 0.08 0.08 79 1011.9
20260508135018 46 0 0.0 0.0 0.00 0.08 0.08 79 1011.9
20260508134534 46 0 0.0 0.0 0.00 0.08 0.08 79 1011.8
20260508134018 46 0 0.0 0.0 0.00 0.08 0.08 79 1011.9
20260508133518 46 0 0.0 0.0 0.00 0.08 0.08 79 1011.9
20260508133036 46 0 0.0 0.0 0.00 0.08 0.08 80 1011.9
20260508132517 46 0 0.0 0.0 0.00 0.08 0.08 79 1011.9
20260508132018 46 0 0.0 0.0 0.00 0.08 0.08 79 1011.8
20260508131530 46 0 0.0 0.0 0.00 0.08 0.08 78 1011.7
20260508131018 46 0 0.0 0.0 0.00 0.08 0.08 78 1011.6
20260508130518 46 0 0.0 0.0 0.00 0.08 0.08 79 1011.5
20260508130032 46 0 0.0 0.0 0.00 0.08 0.08 78 1011.4
20260508125520 46 0 0.0 0.0 0.00 0.08 0.08 80 1011.1
20260508125016 47 0 0.0 0.0 0.00 0.08 0.08 81 1011.4
20260508124529 47 0 0.0 0.0 0.00 0.08 0.08 79 1011.4
20260508124022 47 0 0.0 0.0 0.00 0.08 0.08 82 1011.6
20260508123518 47 0 0.0 0.0 0.00 0.08 0.08 83 1011.6
20260508123035 46 0 0.0 0.0 0.00 0.08 0.08 85 1011.5
20260508122519 45 0 0.0 0.0 0.00 0.08 0.08 86 1011.5
20260508122018 45 0 0.0 0.0 0.00 0.08 0.08 87 1011.5
20260508121554 44 0 0.0 0.0 0.00 0.08 0.08 89 1011.5
20260508121017 43 0 0.0 0.0 0.00 0.08 0.08 92 1011.5
20260508120519 42 0 0.0 0.0 0.00 0.08 0.08 93 1011.4
20260508120036 42 0 0.0 0.0 0.00 0.08 0.08 94 1011.5
20260508115518 41 0 0.0 0.0 0.00 0.08 0.08 94 1011.8
20260508115017 41 0 0.0 0.0 0.00 0.08 0.08 95 1011.7
20260508114531 40 0 0.0 0.0 0.00 0.08 0.08 95 1011.7
20260508114017 40 0 0.0 0.0 0.00 0.08 0.08 95 1011.9
20260508113559 39 0 0.0 0.0 0.00 0.08 0.08 95 1011.9
20260508113038 39 0 0.0 0.0 0.00 0.08 0.08 95 1011.8
20260508112519 39 0 0.0 0.0 0.00 0.08 0.08 95 1012.0
20260508112019 38 0 0.0 0.0 0.00 0.08 0.08 95 1011.9
20260508111535 38 0 0.0 0.0 0.00 0.08 0.08 95 1012.0
20260508111019 37 0 0.0 0.0 0.00 0.08 0.08 95 1011.9
20260508110517 37 0 0.0 0.0 0.00 0.08 0.08 95 1011.9
20260508110040 37 0 0.0 0.0 0.00 0.08 0.08 95 1011.8
20260508105519 36 0 0.0 0.0 0.00 0.08 0.08 95 1011.8
20260508105020 36 0 0.0 0.0 0.00 0.08 0.08 95 1012.0
20260508104531 36 0 0.0 0.0 0.00 0.08 0.08 94 1012.0
20260508104018 36 0 0.0 0.0 0.00 0.08 0.08 95 1012.1
20260508103520 36 0 0.0 0.0 0.00 0.08 0.08 94 1012.1
20260508103033 36 0 0.0 0.0 0.00 0.08 0.08 94 1012.1
20260508102519 35 0 0.0 0.0 0.00 0.08 0.08 94 1012.0
20260508102019 35 0 0.0 0.0 0.00 0.08 0.08 94 1011.9
20260508101534 36 0 0.0 0.0 0.00 0.08 0.08 94 1011.7
20260508101023 36 0 0.0 0.0 0.00 0.08 0.08 94 1011.6
20260508100518 36 0 0.0 0.0 0.00 0.08 0.08 94 1011.6
20260508100035 36 0 0.0 0.0 0.00 0.08 0.08 94 1011.5
20260508095518 36 0 0.0 0.0 0.00 0.08 0.08 93 1011.5
20260508095017 36 0 0.0 0.0 0.00 0.08 0.08 93 1011.5
20260508094536 36 0 0.0 0.0 0.00 0.08 0.08 93 1011.4
20260508094018 36 0 0.0 0.0 0.00 0.08 0.08 93 1011.5
20260508093518 36 0 0.0 0.0 0.00 0.08 0.08 93 1011.4
20260508093031 36 0 0.0 0.0 0.00 0.08 0.08 93 1011.5
20260508092517 37 0 0.0 0.0 0.00 0.08 0.08 92 1011.4
20260508092017 37 0 0.0 0.0 0.01 0.08 0.08 93 1011.3
20260508091533 37 0 0.0 0.0 0.01 0.08 0.08 92 1011.4
20260508091018 38 0 0.0 0.0 0.01 0.08 0.08 92 1011.4
20260508090518 38 0 0.0 0.0 0.01 0.08 0.08 92 1011.5
20260508090031 38 0 0.0 0.0 0.02 0.08 0.08 93 1011.6
20260508085524 38 0 0.0 0.0 0.03 0.08 0.08 92 1011.5
20260508085017 38 0 0.0 0.0 0.03 0.08 0.08 93 1011.5
20260508084538 38 0 0.0 0.0 0.04 0.08 0.08 92 1011.6
20260508084018 38 0 0.0 0.0 0.05 0.08 0.08 92 1011.7
20260508083516 38 0 0.0 0.0 0.06 0.08 0.08 92 1011.6
20260508083114 38 0 0.0 0.0 0.07 0.08 0.08 91 1011.7
20260508082518 38 0 0.0 0.0 0.08 0.08 0.08 91 1011.8
20260508082020 38 0 0.0 0.0 0.07 0.07 0.07 91 1011.8
20260508081536 38 0 0.0 0.0 0.07 0.07 0.07 90 1011.8
20260508081017 39 0 0.0 0.0 0.07 0.07 0.07 90 1011.8
20260508080518 39 0 0.0 0.0 0.07 0.07 0.07 90 1011.8
20260508080054 39 0 0.0 0.0 0.06 0.06 0.06 89 1011.7
20260508075517 39 0 0.0 0.0 0.05 0.05 0.05 89 1011.7
20260508075017 40 0 0.0 0.0 0.05 0.05 0.05 88 1011.6
20260508074535 40 0 0.0 0.0 0.04 0.04 0.04 87 1011.7
20260508074019 41 0 0.0 0.0 0.03 0.03 0.03 86 1011.6
20260508073519 41 0 0.0 0.0 0.02 0.02 0.02 85 1011.5
20260508073033 42 0 0.0 0.0 0.01 0.01 0.01 83 1011.5
20260508072518 42 0 0.0 0.0 0.00 0.00 0.00 81 1011.4
20260508072018 43 0 0.0 0.0 0.00 0.00 0.00 80 1011.3
20260508071536 43 0 0.0 0.0 0.00 0.00 0.00 78 1011.3
20260508071018 43 0 0.0 0.0 0.00 0.00 0.00 78 1011.2
20260508070520 43 0 0.0 0.0 0.00 0.00 0.00 78 1011.1
20260508070034 42 0 0.0 0.0 0.00 0.00 0.00 80 1011.0
20260508065517 41 0 0.0 0.0 0.00 0.00 0.00 84 1011.0
20260508065017 40 0 0.0 0.0 0.00 0.00 0.00 89 1011.0
20260508064600 40 0 0.0 0.0 0.00 0.00 0.00 89 1010.8
20260508064017 40 0 0.0 0.0 0.00 0.00 0.00 89 1011.0
20260508063518 39 0 0.0 0.0 0.00 0.00 0.00 89 1010.8
20260508063038 39 0 0.0 0.0 0.00 0.00 0.00 90 1010.8
20260508062518 39 0 0.0 0.0 0.00 0.00 0.00 89 1010.7
20260508062018 39 0 0.0 0.0 0.00 0.00 0.00 89 1010.8
20260508061537 39 0 0.0 0.0 0.00 0.00 0.00 89 1010.8
20260508061021 39 0 0.0 0.0 0.00 0.00 0.00 89 1010.7
20260508060518 39 0 0.0 0.0 0.00 0.00 0.00 88 1010.7
20260508060034 39 0 0.0 0.0 0.00 0.00 0.00 88 1010.6
20260508055518 39 0 0.0 0.0 0.00 0.01 0.00 88 1010.7
20260508055018 39 0 0.0 0.0 0.00 0.01 0.00 89 1010.7
20260508054535 39 0 0.0 0.0 0.00 0.01 0.00 89 1010.7
20260508054017 39 0 0.0 0.0 0.00 0.01 0.00 90 1010.8
20260508053517 39 0 0.0 0.0 0.00 0.01 0.00 89 1010.7
20260508053032 39 0 0.0 0.0 0.00 0.01 0.00 89 1010.8
20260508052520 39 0 0.0 0.0 0.00 0.01 0.00 88 1010.8
20260508052017 39 0 0.0 0.0 0.00 0.01 0.00 87 1010.7
20260508051532 39 0 0.0 0.0 0.00 0.01 0.00 87 1010.8
20260508051018 39 0 0.0 0.0 0.00 0.01 0.00 88 1010.9
20260508050518 39 0 0.0 0.0 0.00 0.01 0.00 88 1010.9
20260508050045 38 0 0.0 0.0 0.00 0.01 0.00 88 1010.9
20260508045517 38 0 0.0 0.0 0.00 0.01 0.00 89 1010.8
20260508045017 38 0 0.0 0.0 0.00 0.01 0.00 88 1010.9
20260508044531 38 0 0.0 0.0 0.00 0.01 0.00 88 1011.0
20260508044018 38 0 0.0 0.0 0.00 0.01 0.00 88 1010.9
20260508043522 38 0 0.0 0.0 0.00 0.01 0.00 87 1010.8
20260508043036 38 0 0.0 0.0 0.00 0.01 0.00 87 1010.8
20260508042518 38 0 0.0 0.0 0.00 0.01 0.00 88 1010.9
20260508042017 37 0 0.0 0.0 0.00 0.01 0.00 88 1010.8
20260508041530 37 0 0.0 0.0 0.00 0.01 0.00 89 1010.9
20260508041018 37 0 0.0 0.0 0.00 0.01 0.00 90 1010.9
20260508040518 36 0 0.0 0.0 0.00 0.01 0.00 90 1010.9
20260508040035 36 0 0.0 0.0 0.00 0.01 0.00 89 1010.9
20260508035521 36 0 0.0 0.0 0.00 0.01 0.01 90 1010.9
20260508035017 36 0 0.0 0.0 0.00 0.01 0.01 90 1010.8